Location: Holbach
(51.5399°N, 10.6036°E)
Time: 10:55:25
(UTC+00:00)

USA 234 - Pass Details

Date: 18 September 2020
Orbit: 1102 x 1106 km, 123.0° (Epoch: 16 October)

Event Time Altitude Azimuth Distance (km) Brightness Sun altitude
Rises 20:15:48 0° 59° (ENE) 3,927 6.0 -25.4°
Enters shadow 20:16:06 - 59° (ENE) 3,813 5.9 -25.4°
Exits shadow 20:19:21 16° 62° (ENE) 2,571 5.0 -25.8°
Maximum altitude 20:24:52 76° 147° (SSE) 1,139 3.1 -26.4°
Drops below altitude 10° 20:31:25 10° 233° (SW) 2,960 5.6 -27.2°
Sets 20:33:54 0° 235° (SW) 3,916 6.3 -27.4°
